Location: Cheyres
(46.8153°N, 6.7877°E)
Time: 12:52:08
(UTC+00:00)

Cosmos 1328 Rocket - Pass Details

Date: 28 September 2021
Orbit: 601 x 627 km, 82.5° (Epoch: 18 October)

Event Time Altitude Azimuth Distance (km) Brightness Sun altitude
Exits shadow 03:56:15 16° 306° (NW) 1,578 5.3 -16.3°
Drops below altitude 10° 03:58:19 10° 334° (NNW) 1,958 6.0 -16.0°
Sets 04:01:14 0° 355° (N) 2,865 7.1 -15.5°
